Starlink 30354

operational
NORAD ID: 57772 Int'l Des: 2023-134 Owner: SPXS Country: US Constellation: starlink
LEOCIRCULAR

Starlink 30354について

説明を読み込み中...

リアルタイム位置

3D地球を読み込み中...

次回通過

高度履歴

Altitude vs Time

uPlot chart will show altitude changes over time

軌道要素

1 57772U 23134B 25306.30995787 .00000496 00000-0 51796-4 0 9996
2 57772 43.0032 169.3423 0001213 264.6269 95.4435 15.02538158120317
Epoch: Nov 2, 2025 • Age: 30 hours

現在のステータス

高度 558.6 km
速度 7.59 km/s
衛星直下点 18.18°N, 68.22°W
打ち上げ日 Sep 4, 2023
運用期間 2.1 years
タイプ internet

技術仕様

分類 Payload
質量 730.00 kg
乾燥質量 700.00 kg
総質量 730.00 kg
長さ 0.30 m
直径 4.10 m
スパン 29.00 m
形状 Box + pan
製造者 SPXS
バスタイプ Starlink V2M
フェーズステータス In Orbit
所有者/国 SPXS/US

大規模コンステレーション

Loading constellations...